User: anonymous   Login
Location: Unspecified
(0.0000°N, 0.0000°E)
Time: 00:36:17
(UTC+00:00)
Language:

APRIZESAT 2 (LATINSAT D) - Orbit

View from above orbital plane
View from above orbital plane
View from above satellite
View from above satellite

Ground track
Ground track

The orbit data is extracted from the following two-line orbital elements,

1 28366U 04025A   17206.50891997 +.00000007 +00000-0 +16873-4 0  9996
2 28366 098.3351 119.2472 0106621 295.9414 063.0817 14.36607587685092
Epoch (UTC): 25 July 2017 12:12:50
Eccentricity: 0.0106621
inclination: 98.3351°
perigee height: 693 km
apogee height: 846 km
right ascension of ascending node: 119.2472°
argument of perigee: 295.9414°
revolutions per day: 14.36607587
mean anomaly at epoch: 63.0817°
orbit number at epoch: 68509

The dashed part of the orbit path shows where the satellite is in the earth's shadow,  

DLR